STARLINK-34308, 64258

Orbit data source: Space-Track

STARLINK-34308, 64258 is a payload satellite owned by SpaceX/Seattle (US) in LEO that was launched on Wed, 04 Jun 2025 UTC via an FALCON 9 launch vehicle from the Air Force Western Test Range (AFWTR). Payload-class satellites include a variety of spacecraft equipped with specific instruments for various scientific and technological missions. These include communications satellites like Starlink; space stations such as the ISS; scientific satellites like the Hubble; Earth observation satellites from companies like Planet Labs, Umbra, and HawkEye 360; GPS; miniature CubeSats for education and research; and military/defense satellites.

Loading next visibility...
Identifier
64258, 2025-120C
Orbit
LEO
Country
Flag of USUS
Related business
Manufacturer
SpaceX/Seattle
Mission
Operational Commercial Communications
Bus & Motor
STARLINK V2MO, Unknown motor
Mass
575 kg wet, ~530 kg dry
Launch date (UTC)
2025-06-04 (1 year ago)
Launch vehicle
FALCON 9
Launch site
Air Force Western Test Range (AFWTR)
Object type
Payload
Rocket body
Debris
Shape & HBR
Box + 2 Pan, 17.7 m
Radar Cross Section
36.964 m², Large (>1 m²)

Expand to show TLE details & history
Last TLE update: 22 hours ago

TLE from 22 hours ago
0 STARLINK-34308
1 64258U 25120C   26170.93685544  .00025309  00000-0  75725-3 0  9993
2 64258  53.1593 358.7185 0001061  85.6956 274.4168 15.34416939 59569
Epoch: 2026-06-19T22:29Z
TLE epoch observation values (Epoch: 2026-06-19T22:29:04.310Z)
Latitude
0.00002°
Longitude
113.29188°
Altitude
463.498 km
Speed
7.636 km/s
True Right ascension
23h 54m 52s
True Declination
0° 00' 00"
Sunlit
Object was in daylight at epoch
Visualization orbit readout
Latitude
Unknown
Longitude
Unknown
Altitude
Unknown
Speed
Unknown
Apparent Right ascension
Unknown
Apparent Declination
Unknown
Sunlit
N/A
Visualization observer readout
Local Sidereal Time
07:12:51
Azimuth
Unknown
Elevation
Unknown
Doppler factor
Unknown
Orbital elements
Apogee altitude
463.636 km
Perigee altitude
462.184 km
Semi-major axis
6,841.047 km
Eccentricity
0.00011
Inclination
53.1593°
RAAN
358.7185°
Arg. of periapsis
85.6956°
True anomaly
274.40468°
Mean anomaly
274.4168°
Eccentric anomaly
274.41074°
Mean motion
3.83583 °/min
Orbital period
93.85 mins
BSTAR
0.00075725
Loading maneuver chart data...
Computing Atmospheric mass density...
Loading historical data...
Loading historical data...
Loading historical data...
Loading historical data...
Loading historical data...
Loading historical data...
Loading historical data...

Documentation

Showing up to 5 results
|